Oxnard, CA

7:51 PM PDT on May 22, 2017 (GMT -0700)
Oxnard

Weather History for KOXR - October, 2013

Change the Weather History Date:

Wednesday, October 30, 2013

  Actual Average Record
Temperature  
Mean Temperature 56 °F -  
Max Temperature 66 °F 73 °F 91 °F (1999)
Min Temperature 48 °F 51 °F 37 °F (1971)
Degree Days  
Heating Degree Days 9    
Growing Degree Days 6 (Base 50)    
Moisture  
Dew Point 48 °F    
Average Humidity 75    
Maximum Humidity 89    
Minimum Humidity 50    
Precipitation  
Precipitation 0.00 in - - ()
Sea Level Pressure  
Sea Level Pressure 30.03 in    
Wind  
Wind Speed 7 mph (North)    
Max Wind Speed 13 mph    
Max Gust Speed -    
Visibility 10 miles    
Events      
Averages and records for this station are not official NWS values.
T = Trace of Precipitation, MM = Missing Value Source: NWS Daily Summary

Daily Weather History Graph

Daily Weather History Graph

Search for Another Location

Airport or City:

Trip Planner

Search our weather history database for the weather conditions in past years. The results will help you decide how hot, cold, wet, or windy it might be!

Date:

Astronomy

Oct. 30, 2013 Rise Set
Actual Time 7:15 AM PDT 6:05 PM PDT
Civil Twilight 6:49 AM PDT 6:31 PM PDT
Nautical Twilight 6:19 AM PDT 7:00 PM PDT
Astronomical Twilight 5:50 AM PDT 7:29 PM PDT
Moon 3:18 AM PDT (10/30) 3:44 PM PDT (10/30)
Length of Visible Light 11h 41m
Length of Day
10h 50m
Waning Crescent, 16% of the Moon is Illuminated
Oct 30
Waning Crescent
Nov 3
New
Nov 9
First Quarter
Nov 17
Full
Nov 25
Last Quarter

Hourly Weather History & Observations

Time (PDT) Temp. Dew Point Humidity Pressure Visibility Wind Dir Wind Speed Gust Speed Precip Events Conditions
12:51 AM 51.1 °F 46.9 °F 86% 30.01 in 10.0 mi NE 4.6 mph - N/A   Clear
1:51 AM 50.0 °F 46.0 °F 86% 30.01 in 10.0 mi NE 4.6 mph - N/A   Clear
2:51 AM 50.0 °F 46.0 °F 86% 30.00 in 10.0 mi NE 8.1 mph - N/A   Clear
3:51 AM 50.0 °F 45.0 °F 83% 30.00 in 10.0 mi NE 5.8 mph - N/A   Clear
4:51 AM 50.0 °F 44.1 °F 80% 30.01 in 10.0 mi NE 9.2 mph - N/A   Clear
5:51 AM 48.9 °F 43.0 °F 80% 30.02 in 10.0 mi NE 8.1 mph - N/A   Clear
6:51 AM 48.9 °F 43.0 °F 80% 30.03 in 9.0 mi NE 8.1 mph - N/A   Clear
7:51 AM 48.9 °F 42.1 °F 77% 30.04 in 10.0 mi NE 9.2 mph - N/A   Clear
8:51 AM 54.0 °F 43.0 °F 66% 30.06 in 10.0 mi NNE 8.1 mph - N/A   Clear
9:51 AM 59.0 °F 43.0 °F 55% 30.07 in 10.0 mi NNE 6.9 mph - N/A   Clear
10:51 AM 63.0 °F 44.1 °F 50% 30.06 in 10.0 mi Calm Calm - N/A   Clear
11:51 AM 63.0 °F 48.9 °F 60% 30.06 in 10.0 mi West 11.5 mph - N/A   Clear
12:51 PM 63.0 °F 50.0 °F 63% 30.04 in 10.0 mi WNW 11.5 mph - N/A   Clear
1:51 PM 64.9 °F 48.9 °F 56% 30.01 in 10.0 mi WNW 12.7 mph - N/A   Clear
2:51 PM 64.9 °F 50.0 °F 58% 30.00 in 10.0 mi West 10.4 mph - N/A   Clear
3:51 PM 63.0 °F 52.0 °F 67% 30.00 in 10.0 mi West 12.7 mph - N/A   Clear
4:51 PM 62.1 °F 53.1 °F 72% 29.99 in 10.0 mi West 9.2 mph - N/A   Clear
5:51 PM 60.1 °F 52.0 °F 75% 30.00 in 10.0 mi West 10.4 mph - N/A   Clear
6:51 PM 57.9 °F 53.1 °F 84% 30.01 in 10.0 mi WNW 6.9 mph - N/A   Clear
7:51 PM 57.9 °F 52.0 °F 81% 30.02 in 10.0 mi Calm Calm - N/A   Clear
8:51 PM 55.0 °F 51.1 °F 86% 30.03 in 10.0 mi Calm Calm - N/A   Clear
9:51 PM 53.1 °F 50.0 °F 89% 30.04 in 10.0 mi East 3.5 mph - N/A   Clear
10:51 PM 51.1 °F 48.0 °F 89% 30.05 in 10.0 mi Calm Calm - N/A   Clear
11:51 PM 51.1 °F 46.0 °F 83% 30.05 in 10.0 mi NE 5.8 mph - N/A   Clear